Back to catalog

PSLV R/B

AliveHEO
NORAD 47257·ROCKET BODY·🇮🇳 India

Launched Dec 17, 2020 from Satish Dhawan Space Centre

Loading…

Next Passes (next 24 hours)

TLE

FreshSource: Space-Track

Epoch: Sep 14, 2026, 12:42 UTC

1 47257U 20099B   26257.52939741  .00164346  19101-6  14648-2 0  9994
2 47257  17.8132  92.8515 5330682  93.1997 326.1420  5.22468906 91228

Track PSLV R/B in real time with AllMySat

Download on the App Store